Flag for U.S.A. Weather past 2 weeks in Peoria, Illinois, U.S.A.

Now
65 °F

Sunny.


Feels Like: 65 °F
Forecast: 36 / 62 °F
Wind: 13 mph from North

Location: Greater Peoria Regional Airport

Current Time: Apr 27, 2015 at 5:24:38 PM

Latest Report: Apr 27, 2015 at 3:54 PM


Visibility: 10 mi

Pressure: 30.08 "Hg

Humidity: 34%

Dew point: 36 °F

Location of PeoriaLocation

Historic Weather in Peoria — Graph

°F

Peoria temperature yesterday

Maximum temperature yesterday: 61 °F (at 3:54 PM)
Minimum temperature yesterday: 39 °F (at 5:54 AM)
Average temperature yesterday: 51 °F

Past Weeks' High & Low Weather Summary

 TemperatureHumidityPressure
High81 °F (Apr 17, 5:54 PM)93% (Apr 19, 6:54 PM)30.29 "Hg (Apr 19, 6:54 PM)
Low35 °F (Apr 23, 5:54 AM)15% (Apr 23, 4:54 PM)29.36 "Hg (Apr 20, 12:54 AM)
Average57 °F51%29.93 "Hg
* Reported Apr 12 3:54 PM — Apr 27 3:54 PM, Peoria, Weather by CustomWeather, © 2015

Note: Actual official high and low records may vary slightly from our data, if they occured in-between our weather recording intervals... More about our weather records

Advertising

Peoria weather history for previous 24 hours

 ConditionsComfort  
Time TempWeatherWind HumidityBarometerVisibility
3:54 PM
Mon, Apr 27
65 °FSunny.13 mph34%30.08 "Hg10 mi
2:54 PM65 °FSunny.7 mph36%30.10 "Hg10 mi
1:54 PM63 °FSunny.14 mph37%30.12 "Hg10 mi
12:54 PM61 °FSunny.8 mph38%30.14 "Hg10 mi
11:54 AM61 °FSunny.14 mph39%30.14 "Hg10 mi
10:54 AM57 °FSunny.9 mph42%30.14 "Hg10 mi
9:54 AM54 °FSunny.13 mph45%30.14 "Hg10 mi
8:54 AM51 °FSunny.15 mph50%30.14 "Hg10 mi
7:54 AM47 °FSunny.9 mph61%30.13 "Hg10 mi
6:54 AM43 °FClear.3 mph62%30.12 "Hg10 mi
5:54 AM38 °FClear.3 mph79%30.12 "Hg10 mi
4:54 AM37 °FClear.No wind82%30.10 "Hg10 mi
3:54 AM38 °FClear.3 mph86%30.07 "Hg10 mi
2:54 AM40 °FClear.No wind77%30.06 "Hg10 mi
1:54 AM41 °FClear.3 mph76%30.06 "Hg10 mi
12:54 AM42 °FClear.No wind76%30.07 "Hg10 mi
11:54 PM
Sun, Apr 26
47 °FClear.No wind61%30.06 "Hg10 mi
10:54 PM49 °FClear.7 mph59%30.06 "Hg10 mi
9:54 PM48 °FClear.No wind63%30.03 "Hg10 mi
8:54 PM51 °FClear.No wind54%30.02 "Hg10 mi
7:54 PM56 °FSunny.5 mph42%30.01 "Hg10 mi
6:54 PM58 °FSunny.12 mph41%30.00 "Hg10 mi
5:54 PM59 °FSunny.13 mph39%29.99 "Hg10 mi
Weather by CustomWeather, © 2015

See weather overviewHow to use our weather pages